Location: Bathsheba
(13.2167°N, 59.5167°W)
Time: 22:43:43
(UTC+00:00)

Delta 168 - Pass Details

Date: 18 September 2020
Orbit: 394 x 2050 km, 25.3° (Epoch: 20 October)

Event Time Altitude Azimuth Distance (km) Brightness Sun altitude
Rises 22:43:26 0° 301° (WNW) 3,032 7.8 -12.2°
Reaches altitude 10° 22:46:31 10° 315° (NW) 1,868 6.3 -13.0°
Maximum altitude 22:49:52 23° 10° (N) 1,040 4.2 -13.8°
Enters shadow 22:51:29 17° 49° (NE) 1,191 4.1 -14.2°
